APSTAR 6

Last updated on Nov. 18, 2019, 4:21 a.m. UTC

1 28638U 05012A   19321.49239146 -.00000076  00000-0  00000+0 0  9992
2 28638   1.1641  94.0542 0004543 175.3316 127.1647  1.00271680 78310
UTC
Height (km)
Latitude
Longitude
Inclination
Orbital Period
UTC large
Height (km)
Speed (km/s)
/
Latitude / Longitude
Inclination (degrees)
Orbital Period (minutes)
Azimuth
Elevation
Range (km)
Doppler Factor
iOS Compass Heading
iOS Angle

Next 30 passes for location: Hong Kong

Rise time Rise Azimuth (degrees) Set time Set Azimuth (degrees) Duration Max altitude (degrees)

No matching passes for this satellites